FW9206 Weather Reports


time (UTC)temp
F
wind
direction
speed
knots
gust
knots
rain 1hr
in
rain 24hr
in
rain mn
in
humidity
%
barometer
mb
20260507070006 50 301 5.2 9.6 0.00 0.23 0.01 88 1008.4
20260507065404 50 301 5.2 10.4 0.00 0.23 0.01 88 1008.3
20260507064504 50 293 3.5 7.8 0.00 0.23 0.01 88 1008.0
20260507063604 50 292 3.5 8.7 0.00 0.23 0.01 88 1008.1
20260507062703 51 289 3.5 8.7 0.00 0.23 0.01 88 1007.9
20260507061803 51 289 4.3 10.4 0.00 0.23 0.01 88 1007.8
20260507060903 51 291 5.2 10.4 0.00 0.23 0.01 88 1008.0
20260507060024 51 293 3.5 11.3 0.00 0.23 0.01 89 1008.1
20260507055403 51 286 4.3 11.3 0.00 0.23 0.01 89 1008.2
20260507054503 51 282 2.6 9.6 0.00 0.23 0.01 90 1008.4
20260507053603 51 293 3.5 6.1 0.00 0.23 0.01 88 1008.5
20260507052704 51 304 3.5 7.8 0.00 0.23 0.01 87 1008.7
20260507051803 51 304 3.5 8.7 0.00 0.23 0.01 87 1008.4
20260507050903 51 301 5.2 10.4 0.00 0.23 0.01 89 1008.6
20260507050004 52 307 4.3 10.4 0.01 0.23 0.01 89 1008.3
20260507045403 52 314 4.3 9.6 0.01 0.23 0.01 90 1008.2
20260507044504 52 308 5.2 13.9 0.01 0.23 0.01 90 1008.1
20260507043624 52 312 5.2 12.2 0.01 0.23 0.01 91 1008.3
20260507042703 53 310 6.1 12.2 0.01 0.23 0.01 92 1008.2
20260507041803 53 309 5.2 12.2 0.01 0.23 0.01 93 1008.4
20260507040903 54 304 5.2 13.0 0.01 0.23 0.01 93 1008.5
20260507040004 54 307 6.1 12.2 0.00 0.22 0.00 93 1008.3
20260507035403 55 309 5.2 13.0 0.00 0.22 0.22 93 1008.2
20260507034503 56 309 5.2 12.2 0.00 0.22 0.22 93 1008.0
20260507033603 56 300 5.2 13.0 0.00 0.22 0.22 94 1007.7
20260507032724 57 291 5.2 11.3 0.00 0.22 0.22 95 1007.7
20260507031803 58 305 4.3 13.9 0.00 0.22 0.22 95 1007.5
20260507030903 58 290 6.1 13.9 0.00 0.22 0.22 96 1007.4
20260507030004 58 278 7.0 13.9 0.00 0.22 0.22 96 1007.5
20260507025424 59 270 6.1 13.9 0.00 0.22 0.22 96 1007.5
20260507024503 59 258 6.1 15.6 0.00 0.22 0.22 96 1007.2
20260507023603 59 238 7.8 15.6 0.00 0.22 0.22 96 1007.3
20260507022703 59 221 6.1 11.3 0.00 0.22 0.22 96 1007.2
20260507021803 59 220 4.3 11.3 0.00 0.22 0.22 96 1006.9
20260507020903 59 220 5.2 13.0 0.00 0.22 0.22 96 1006.8
20260507020003 59 212 6.1 14.8 0.00 0.22 0.22 96 1006.9
20260507015403 59 211 5.2 14.8 0.01 0.22 0.22 96 1006.9
20260507014524 59 205 5.2 13.0 0.01 0.22 0.22 96 1007.0
20260507013624 59 202 6.1 12.2 0.01 0.22 0.22 96 1007.0
20260507012724 59 205 6.1 11.3 0.01 0.22 0.22 96 1007.0
20260507011803 59 204 5.2 13.0 0.01 0.22 0.22 96 1007.1
20260507010904 59 205 6.1 14.8 0.01 0.22 0.22 96 1007.0
20260507010004 59 199 4.3 13.0 0.01 0.22 0.22 96 1007.1
20260507005424 59 199 5.2 13.0 0.00 0.21 0.21 96 1007.1
20260507004504 59 200 5.2 12.2 0.00 0.21 0.21 96 1007.1
20260507003604 59 197 5.2 12.2 0.00 0.21 0.21 96 1007.0
20260507002703 59 202 5.2 12.2 0.00 0.21 0.21 96 1006.8
20260507001803 59 200 4.3 12.2 0.01 0.21 0.21 96 1006.9
20260507000903 59 200 5.2 14.8 0.03 0.21 0.21 96 1006.9
20260507000024 59 194 5.2 14.8 0.05 0.21 0.21 96 1006.7
20260506235403 59 199 5.2 14.8 0.05 0.21 0.21 96 1006.8
20260506234503 59 198 5.2 14.8 0.07 0.21 0.21 96 1006.6
20260506233604 59 198 4.3 11.3 0.09 0.21 0.21 96 1006.6
20260506232704 59 192 4.3 13.0 0.09 0.21 0.21 96 1006.6
20260506231804 59 190 4.3 14.8 0.08 0.20 0.20 96 1006.6
20260506230924 59 194 5.2 14.8 0.06 0.18 0.19 95 1006.7
20260506230003 59 192 4.3 12.2 0.05 0.16 0.16 95 1006.9
20260506225403 59 198 4.3 13.9 0.05 0.16 0.16 95 1007.0
20260506224503 59 197 4.3 12.2 0.04 0.14 0.14 95 1007.0
20260506223604 59 195 4.3 13.0 0.02 0.12 0.13 95 1007.0
20260506222705 59 192 4.3 12.2 0.03 0.12 0.12 95 1007.0
20260506221803 59 192 6.1 17.4 0.03 0.12 0.12 95 1007.1
20260506220924 59 192 5.2 17.4 0.03 0.12 0.12 95 1007.1
20260506220003 59 185 5.2 14.8 0.03 0.11 0.11 94 1007.1
20260506215424 59 191 5.2 18.2 0.04 0.11 0.11 94 1007.2
20260506214504 59 187 5.2 15.6 0.04 0.10 0.10 94 1007.1
20260506213604 59 181 5.2 14.8 0.05 0.10 0.10 94 1007.1
20260506212703 59 186 5.2 18.2 0.05 0.09 0.09 94 1007.2
20260506211803 59 187 6.1 15.6 0.06 0.09 0.09 94 1007.3
20260506210924 60 184 6.1 21.7 0.07 0.09 0.09 93 1007.5
20260506210004 60 183 6.1 18.2 0.06 0.08 0.08 93 1007.5
20260506205403 60 183 5.2 15.6 0.05 0.07 0.07 93 1007.6
20260506204504 60 189 6.1 15.6 0.04 0.06 0.06 92 1007.9
20260506203604 61 189 4.3 13.9 0.03 0.05 0.05 92 1007.7
20260506202703 61 200 4.3 13.9 0.02 0.04 0.04 91 1007.7
20260506201803 62 197 5.2 15.6 0.01 0.03 0.03 90 1007.9
20260506200903 62 194 5.2 13.9 0.01 0.02 0.02 90 1007.8
20260506200003 62 201 5.2 13.0 0.01 0.02 0.02 89 1007.8
20260506195424 62 205 4.3 12.2 0.02 0.02 0.02 89 1007.8
20260506194503 62 205 5.2 15.6 0.02 0.02 0.02 89 1007.9
20260506193603 62 198 6.1 17.4 0.02 0.02 0.02 88 1007.8
20260506192703 63 201 4.3 13.0 0.02 0.02 0.02 90 1007.9
20260506191803 63 197 2.6 6.1 0.02 0.02 0.02 89 1007.8
20260506190903 63 216 4.3 7.8 0.01 0.01 0.01 88 1007.7
20260506190003 63 225 4.3 10.4 0.01 0.01 0.01 87 1007.9
20260506185403 64 237 5.2 9.6 0.00 0.00 0.00 85 1008.1
20260506184503 64 250 5.2 8.7 0.00 0.00 0.00 83 1008.1
20260506183624 65 252 6.1 13.9 0.00 0.00 0.00 78 1008.3
20260506182724 68 241 7.8 20.0 0.00 0.00 0.00 72 1008.3
20260506181803 69 222 7.8 19.1 0.00 0.00 0.00 66 1008.3
20260506180904 70 217 10.4 21.7 0.00 0.00 0.00 63 1008.3
20260506180004 70 211 9.6 22.6 0.00 0.00 0.00 62 1008.2
20260506175403 70 211 7.0 18.2 0.00 0.00 0.00 61 1008.3
20260506174503 71 206 6.1 16.5 0.00 0.00 0.00 59 1008.2
20260506173603 71 199 6.1 19.1 0.00 0.00 0.00 59 1008.2
20260506172703 71 199 6.1 20.9 0.00 0.00 0.00 58 1008.1
20260506171804 71 196 7.8 25.2 0.00 0.00 0.00 59 1008.1
20260506170924 71 193 7.8 22.6 0.00 0.00 0.00 59 1008.4
20260506170024 71 200 9.6 23.5 0.00 0.00 0.00 60 1008.5
20260506165403 71 193 7.0 19.1 0.00 0.00 0.00 59 1008.7
20260506164503 71 197 5.2 15.6 0.00 0.00 0.00 61 1008.7
20260506163603 70 206 7.8 20.9 0.00 0.00 0.00 62 1008.9
20260506162703 70 198 7.0 16.5 0.00 0.00 0.00 63 1009.0
20260506161803 70 198 6.1 15.6 0.00 0.00 0.00 63 1009.1
20260506160925 70 201 6.1 15.6 0.00 0.00 0.00 64 1009.2
20260506160003 69 195 5.2 14.8 0.00 0.00 0.00 64 1009.6
20260506155403 69 202 6.1 13.9 0.00 0.00 0.00 65 1009.7
20260506154503 69 205 5.2 17.4 0.00 0.00 0.00 65 1009.9
20260506153603 69 205 6.1 17.4 0.00 0.00 0.00 66 1010.0
20260506152704 69 194 7.0 19.1 0.00 0.00 0.00 66 1010.2
20260506151803 69 206 6.1 20.0 0.00 0.00 0.00 66 1010.2
20260506150903 69 207 9.6 23.5 0.00 0.00 0.00 65 1010.3
20260506150004 69 194 8.7 22.6 0.00 0.00 0.00 66 1010.1
20260506145403 69 197 7.8 20.9 0.00 0.00 0.00 66 1010.2
20260506144503 69 202 6.1 17.4 0.00 0.00 0.00 67 1010.2
20260506143625 68 204 8.7 22.6 0.00 0.00 0.00 67 1010.2
20260506142724 68 199 5.2 13.0 0.00 0.00 0.00 67 1010.1
20260506141825 68 203 5.2 13.9 0.00 0.00 0.00 69 1010.1
20260506140903 68 196 6.1 17.4 0.00 0.00 0.00 71 1009.8
20260506140003 66 192 7.8 19.1 0.00 0.00 0.00 72 1010.0
20260506135403 66 192 7.0 18.2 0.00 0.00 0.00 72 1010.1
20260506134504 66 192 5.2 15.6 0.00 0.00 0.00 74 1010.2
20260506133604 65 192 5.2 18.2 0.00 0.00 0.00 75 1010.3
20260506132703 65 196 4.3 10.4 0.00 0.00 0.00 75 1010.5
20260506131824 64 195 6.1 17.4 0.00 0.00 0.00 76 1010.7
20260506130904 64 198 6.1 17.4 0.00 0.00 0.00 76 1010.7
20260506130004 64 191 4.3 13.9 0.00 0.00 0.00 76 1010.6
20260506125404 64 200 5.2 22.6 0.00 0.00 0.00 76 1010.8
20260506124524 64 199 7.0 14.8 0.00 0.00 0.00 76 1010.7
20260506123605 64 189 5.2 18.2 0.00 0.00 0.00 77 1010.5
20260506122703 63 193 4.3 11.3 0.00 0.00 0.00 77 1010.5
20260506121824 63 192 4.3 12.2 0.00 0.00 0.00 77 1010.7
20260506120925 63 197 5.2 15.6 0.00 0.00 0.00 77 1010.7
20260506120003 62 202 5.2 15.6 0.00 0.00 0.00 79 1010.7
20260506115403 62 199 5.2 14.8 0.00 0.00 0.00 79 1010.8
20260506114503 62 205 5.2 10.4 0.00 0.00 0.00 79 1010.9
20260506113603 62 193 6.1 20.0 0.00 0.00 0.00 79 1010.9
20260506112703 62 195 4.3 13.0 0.00 0.00 0.00 79 1011.2
20260506111803 61 193 5.2 13.0 0.00 0.00 0.00 79 1011.2
20260506110903 61 195 5.2 18.2 0.00 0.00 0.00 79 1011.0
20260506110004 61 186 4.3 12.2 0.00 0.00 0.00 80 1010.9
20260506105403 60 192 4.3 13.0 0.00 0.00 0.00 80 1011.2
20260506104503 60 187 3.5 13.0 0.00 0.00 0.00 80 1011.2
20260506103624 60 188 4.3 11.3 0.00 0.00 0.00 80 1011.2
20260506102703 60 186 4.3 13.0 0.00 0.00 0.00 80 1010.9
20260506101803 60 183 3.5 9.6 0.00 0.00 0.00 80 1010.8
20260506100903 60 192 3.5 11.3 0.00 0.00 0.00 80 1011.1
20260506100024 60 187 4.3 12.2 0.00 0.00 0.00 79 1011.1
20260506095403 60 183 3.5 8.7 0.00 0.00 0.00 79 1010.9
20260506094505 60 183 4.3 10.4 0.00 0.00 0.00 79 1010.8
20260506093624 60 179 3.5 10.4 0.00 0.00 0.00 79 1010.7
20260506092704 61 186 4.3 13.9 0.00 0.00 0.00 78 1011.0
20260506091804 61 191 4.3 13.0 0.00 0.00 0.00 78 1011.0
20260506090903 61 193 4.3 11.3 0.00 0.00 0.00 77 1010.9
20260506090004 61 197 4.3 13.0 0.00 0.00 0.00 77 1010.8
20260506085403 61 191 4.3 13.0 0.00 0.00 0.00 76 1010.9
20260506084526 61 195 4.3 11.3 0.00 0.00 0.00 76 1010.9
20260506083624 62 192 4.3 11.3 0.00 0.00 0.00 75 1011.0
20260506082703 62 192 4.3 16.5 0.00 0.00 0.00 75 1010.9
20260506081803 62 193 4.3 13.0 0.00 0.00 0.00 74 1010.9
20260506080904 62 194 5.2 15.6 0.00 0.00 0.00 74 1010.9
20260506072703 63 201 4.3 14.8 0.00 0.00 0.00 71 1010.7
20260506071803 63 199 6.1 15.6 0.00 0.00 0.00 70 1010.6
20260506070903 63 203 5.2 12.2 0.00 0.00 0.00 69 1010.6